SCP
-0 -0 0 -0 0 0 -0 0 -0 0 -0 0 0 -0 -0 -0 0 0 0 0 0 -0 0 -0 -0 0 0 -0 0 -0 -0 -0 0 0 -0 0 -0 -0 -0 -0 -0 -0 -0 0 0 -0 -0 -0 0
-0 -0 -0 -0 -0 -0 0 -0 -0 -0 -0 -0 -0 0 -0 0 0 -0 0 -0 0 0 0 0 -0 -0 -0 -0 -0 -0 -0 -0 0 0 -0 -0 -0 -0 -0 -0 -0 -0 -0 0 -0 -0 -0 -0 -0
-0 -0 0 -0 0 -0 -0 -0 -0 -0 -0 -0 0 0 -0 -0 0 -0 -0 -0 -0 -0 -0 0 -0 -0 0 -0 -0 -0 0 -0 0 0 0 -0 0 0 -0 0 -0 -0 -0 -0 -0 -0 -0 -0 -0
0 0 0 0 0 0 -0 0 -0 -0 -0 0 -0 -0 -0 -0 -0 0 0 0 0 -0 -0 -0 -0 -0 -0 -0 -0 0 0 0 0 0 0 0 0 -0 -0 0 0 -0 -0 -0 -0 -0 -0 -0 -0
-0 0 0 0 0 0 0 -0 -0 -0 -0 -0 -0 -0 -0 0 -0 -0 0 0 -0 -0 -0 0 -0 -0 0 0 0 0 -0 0 0 0 0 0 0 -0 -0 -0 -0 -0 -0 0 0 0 0 0 0
-0 0 -0 0 -0 -0 -0 -0 -0 0 -0 -0 -0 -0 -0 -0 0 0 0 -0 -0 -0 -0 0 0 0 0 0 -0 0 0 0 0 0 0 0 0 0 0 0 0 0 0 0 0 0 0 0 0
0 0 0 -0 -0 -0 -0 -0 -0 -0 -0 -0 -0 -0 0 0 0 -0 -0 -0 -0 -0 0 0 0 -0 0 -0 -0 0 0 0 0 0 0 0 0 0 0 0 0 0 0 0 0 0 0 0 0
-0 -0 -0 -0 -0 0 -0 -0 -0 -0 -0 -0 -0 -0 -0 -0 -0 0 0 -0 -0 -0 -0 -0 0 -0 0 0 0 0 0 0 0 0 0 0 0 0 0 0 0 0 0 0 0 0 0 0 0
0 0 0 -0 -0 0 0 -0 -0 0 -0 -0 -0 -0 -0 -0 -0 -0 0 -0 -0 0 0 -0 -0 0 0 0 0 0 0 0 0 0 0 0 0 0 0 0 0 0 0 0 0 -0 -0 0 -0
0 -0 -0 0 -0 0 -0 -0 -0 -0 -0 -0 -0 -0 -0 -0 -0 -0 -0 0 -0 0 -0 0 -0 0 0 0 0 0 0 0 0 0 0 0 0 0 -0 0 1 0 0 0 -0 -0 0 -0 0
-0 -0 -0 0 -0 -0 -0 -0 -0 -0 -0 -0 -0 -0 -0 -0 -0 -0 -0 0 0 -0 -0 0 -0 0 -0 0 0 0 0 0 0 0 -0 0 0 0 0 1 0 0 0 0 0 0 0 0 0
0 0 -0 -0 -0 -0 -0 -0 -0 -0 -0 -0 -0 -0 -0 -0 -0 -0 -0 -0 0 -0 -0 -0 -0 -0 -0 -0 0 0 0 0 0 0 0 0 1 0 0 0 0 1 1 0 0 1 1 1 0
0 -0 0 -0 -0 -0 -0 -0 -0 -0 -0 -0 -0 -0 -0 -0 -0 0 0 -0 -0 0 -0 -0 -0 -0 -0 -0 -0 -0 0 0 0 0 0 0 0 0 0 1 1 1 0 0 1 1 0 1 1
0 -0 0 -0 -0 -0 -0 -0 -0 -0 -0 -0 -0 -0 -0 -0 -0 -0 0 0 -0 -0 -0 -0 0 -0 -0 0 -0 0 0 -0 -0 0 0 0 -0 0 0 1 1 1 1 1 1 1 1 0 0
0 -0 -0 -0 -0 -0 -0 -0 -0 -0 -0 -0 -0 -0 -0 -0 -0 0 0 -0 -0 -0 -0 -0 0 0 -0 -0 0 0 0 0 0 0 0 0 0 1 0 1 0 0 1 0 1 0 -0 0 -0
-0 -0 0 0 -0 -0 -0 0 -0 -0 -0 -0 -0 -0 -0 -0 -0 -0 0 -0 -0 -0 -0 0 0 -0 -0 0 0 0 -0 0 0 0 0 0 0 0 0 1 1 1 1 0 -0 -0 -0 -0 0
-0 0 0 0 0 0 0 -0 0 -0 -0 -0 -0 -0 -0 -0 -0 0 0 -0 0 0 -0 -0 -0 -0 -0 -0 0 0 -0 0 0 0 0 0 0 0 0 1 1 1 1 0 0 0 -0 -0 0
0 0 0 -0 0 0 -0 -0 -0 0 -0 -0 -0 -0 -0 -0 -0 0 -0 0 0 0 -0 -0 -0 -0 -0 -0 0 0 0 0 0 -0 -0 0 0 0 1 1 1 1 1 1 1 1 1 1 0
0 -0 0 -0 -0 -0 0 -0 -0 -0 -0 -0 -0 -0 -0 -0 0 0 0 0 0 0 0 -0 0 0 -0 -0 -0 -0 -0 0 0 0 0 0 0 0 1 0 1 1 1 1 1 0 1 1 1
0 -0 -0 -0 -0 0 0 -0 -1 -1 -0 -0 -0 -0 -0 -0 -0 0 0 0 0 0 -0 -0 -0 -0 -0 -0 -0 -0 -0 -0 0 0 0 0 0 0 0 1 1 1 1 1 1 1 1 1 1
0 0 -0 -0 -0 -0 -0 0 -0 -0 -0 -1 -0 -0 -0 -0 -0 -0 0 -0 -0 0 -0 -0 0 -0 -0 -0 -0 -0 -0 -0 -0 0 0 0 0 1 1 1 1 1 1 2 1 1 1 1 1
0 0 -0 0 -0 0 0 0 0 -0 -1 -0 -1 -0 -0 -0 -0 -0 0 -0 -0 0 0 -0 0 -0 -0 -0 -0 0 -0 -0 -0 0 0 0 0 1 1 1 1 1 1 1 1 1 1 1 1
0 -0 0 0 -0 0 0 -0 0 -0 -0 -1 -0 -1 -0 -0 -0 -0 -0 0 -0 -0 0 0 0 -0 -0 -0 -0 0 0 -0 -0 -0 0 0 1 1 0 1 1 1 1 1 1 1 1 1 1
0 -0 -0 0 0 0 -0 -0 0 0 0 -1 -0 -0 -1 -0 -0 -0 -0 0 -0 -0 -0 0 0 0 -0 0 0 -0 0 0 -0 -0 -0 0 1 1 1 2 1 1 1 1 1 1 1 0 0
-0 0 0 0 0 -0 -0 -0 0 0 0 0 -0 -0 -0 -0 -0 -0 -0 -0 0 -0 0 0 -0 -0 0 0 0 0 -0 -0 -0 0 -0 0 -0 -0 2 2 1 2 2 2 2 1 1 0 0
0 0 0 0 0 0 0 0 0 0 0 -0 -0 -0 -0 -0 -0 -0 -0 0 0 0 0 0 -0 -0 0 0 0 0 0 -0 -0 -0 0 -0 -0 -0 1 1 1 2 2 2 2 2 1 0 0
0 0 0 0 0 0 0 0 0 -0 -0 -0 0 -0 -0 -0 -0 -0 0 0 0 0 0 0 -0 -0 0 0 0 0 0 0 0 0 -0 -0 -0 -0 0 1 2 2 2 2 2 2 1 0 0
0 0 0 -0 0 -0 -0 0 0 0 -0 0 0 -0 -0 -0 -0 -0 0 1 0 0 0 -0 0 -0 0 0 0 0 0 0 0 0 0 -0 0 0 1 1 2 2 2 2 2 2 1 0 0
0 0 0 0 -0 -0 0 0 0 0 -0 -0 0 -0 -1 -0 -0 -0 0 0 0 0 -0 0 0 0 0 0 0 0 0 0 0 0 0 -0 0 0 1 1 2 2 2 2 2 2 1 0 0
0 0 0 0 0 0 -0 -0 0 0 0 0 0 -0 -0 0 0 0 0 0 0 0 -0 0 0 0 0 0 0 0 0 0 0 0 0 -0 -0 0 1 2 2 2 2 2 2 1 0 0 0
Wind_Speed_500mb
13 14 17 19 1 5 18 15 31 26 27 17 24 32 26 31 8 22 35 32 33 24 25 24 22 21 20 20 20 20 19 21 21 21 24 23 24 22 22 24 20 19 18 18 19 20 20 19 14
16 10 12 6 5 10 13 26 28 28 37 39 42 42 27 9 22 43 41 39 31 25 17 23 23 21 20 20 20 22 23 22 22 22 22 21 20 22 21 21 19 20 21 19 20 19 18 16 13
31 27 7 5 8 13 10 12 26 47 48 30 19 26 22 20 41 26 40 40 33 25 13 22 25 22 25 22 22 21 21 21 19 17 19 18 21 23 18 21 20 19 19 17 15 13 12 11 8
14 28 5 5 34 26 13 27 46 41 37 20 42 25 22 17 24 31 43 38 30 32 16 25 24 22 20 21 21 20 19 18 18 17 21 18 16 20 14 20 18 19 17 12 10 7 9 8 6
12 17 5 12 35 29 17 43 37 35 34 30 30 25 23 36 38 48 40 37 32 21 15 24 24 19 22 19 21 21 18 20 19 18 18 16 17 16 16 16 13 13 11 8 5 4 4 4 2
30 1 10 7 40 46 42 50 45 16 37 39 33 35 18 38 51 50 39 23 37 22 11 23 22 20 22 20 22 20 19 19 18 17 17 17 14 17 17 15 14 12 8 5 4 4 5 5 8
16 6 14 26 27 22 41 43 43 30 37 31 46 15 25 53 52 29 45 23 37 14 13 15 20 21 20 21 21 18 17 18 16 18 23 25 21 16 15 17 14 13 12 12 11 11 11 13 13
20 9 30 18 20 6 36 31 35 37 30 41 41 18 32 57 45 35 46 32 27 30 18 16 25 23 17 19 20 21 22 23 20 19 16 18 10 9 8 13 29 21 19 20 20 21 20 17 11
23 8 14 15 17 17 37 41 27 33 45 36 26 34 58 63 43 47 37 28 21 29 22 18 19 13 12 15 25 29 25 21 13 11 22 15 18 8 8 17 25 29 22 27 30 23 20 19 12
10 14 24 19 31 30 33 36 28 32 36 22 36 57 70 60 57 50 41 32 32 29 23 28 17 26 14 17 18 18 19 16 15 18 26 24 25 26 29 31 19 19 25 19 21 10 16 23 11
10 9 22 27 29 20 37 26 30 34 22 42 43 62 72 62 54 45 44 40 32 24 32 34 23 26 23 10 16 10 7 11 21 23 12 21 27 32 38 25 22 21 15 13 24 24 9 25 28
11 20 30 25 23 21 28 19 48 52 4 45 47 59 64 57 56 55 42 35 35 33 36 26 22 19 26 19 16 7 8 19 18 19 26 30 18 17 28 21 36 29 13 13 25 13 13 14 10
4 11 16 17 29 23 22 22 40 40 32 46 51 56 59 54 46 47 43 37 36 33 30 32 32 20 26 15 15 10 12 14 15 19 18 21 17 11 9 25 15 30 23 12 11 9 10 16 8
26 40 18 28 22 12 26 19 21 21 35 43 49 53 52 54 49 49 40 42 38 35 33 26 28 30 31 19 23 13 28 13 17 18 16 23 19 33 33 29 17 22 23 32 34 25 25 30 21
41 34 16 21 24 19 19 18 14 27 37 40 48 52 53 52 50 43 46 36 41 34 32 27 28 27 21 17 34 22 18 7 6 15 23 23 15 3 17 19 9 20 21 18 31 26 29 17 24
30 49 15 17 19 22 25 9 36 25 39 42 47 55 57 55 50 42 51 38 35 37 38 31 28 26 21 26 26 13 10 14 9 7 11 15 17 21 14 22 25 24 26 17 21 16 26 31 22
40 16 31 14 34 20 22 29 20 31 39 44 48 56 52 55 55 55 48 47 41 39 42 39 35 28 23 25 32 16 16 20 8 1 7 12 20 20 15 22 23 23 25 24 22 14 20 30 29
10 18 12 26 16 37 28 29 29 45 50 49 50 59 57 55 46 55 53 47 49 40 43 44 33 32 29 25 23 19 14 9 8 4 11 2 11 13 18 21 22 21 19 27 31 26 25 30 35
14 16 22 42 36 44 11 38 48 57 52 55 52 56 68 62 54 53 52 49 44 46 42 48 41 37 30 22 27 20 17 11 10 9 17 5 10 13 18 9 19 13 16 24 33 27 18 22 34
29 14 51 37 29 23 13 35 54 50 53 62 65 61 69 65 68 60 55 55 49 53 50 52 49 37 36 29 28 20 22 21 15 10 10 5 4 11 7 4 7 13 8 20 25 27 23 24 24
41 44 55 44 40 31 17 22 49 52 53 60 57 60 60 71 82 70 70 62 57 57 53 53 52 47 44 28 27 30 30 22 26 17 4 4 5 10 12 6 13 10 16 14 20 26 22 20 24
45 48 50 32 22 25 26 17 6 44 45 47 63 63 66 66 67 71 68 64 64 60 57 51 58 52 45 42 30 32 32 21 11 10 16 3 12 18 2 16 12 14 11 15 15 22 13 16 15
45 48 37 34 20 28 24 19 26 46 46 46 53 70 67 72 73 72 69 68 69 59 58 56 55 56 45 52 37 31 32 21 16 17 17 13 13 15 8 15 25 12 6 16 20 21 19 14 10
45 50 46 31 25 27 36 31 25 25 30 43 51 67 72 71 71 77 71 76 73 64 60 61 60 59 56 48 49 41 32 33 24 22 15 4 13 16 12 25 29 20 11 13 21 18 23 20 21
46 44 28 25 28 26 36 33 11 32 13 31 44 62 67 72 71 80 78 86 76 73 70 66 66 63 61 58 52 52 45 40 35 27 22 12 9 7 23 27 33 13 18 19 15 19 21 24 23
52 46 30 34 29 31 14 21 2 43 49 103 83 67 66 68 70 74 80 80 81 73 72 70 70 67 64 64 59 51 54 47 41 38 31 17 11 10 20 29 27 19 19 16 12 13 23 24 22
50 43 46 51 42 13 15 13 17 42 39 36 51 68 68 68 70 73 73 76 76 76 74 73 70 68 64 63 60 58 55 51 46 31 22 26 32 31 22 32 15 25 27 12 8 12 24 23 21
58 36 40 33 45 22 6 7 25 22 31 34 32 63 71 69 68 72 72 74 71 72 73 71 68 69 61 59 62 60 57 53 46 38 40 30 21 21 31 19 25 33 22 14 9 13 25 24 16
38 41 39 44 35 29 24 12 20 32 41 33 27 68 76 73 69 71 70 77 75 70 72 74 71 68 63 59 59 58 57 54 49 49 43 41 37 38 36 25 25 28 19 18 15 14 24 23 19
51 52 52 32 38 30 16 10 2 35 48 27 30 71 75 70 67 70 68 74 76 73 73 75 73 70 63 61 60 58 55 49 50 49 45 43 41 34 29 23 26 26 20 21 17 13 22 23 14
Wind_Direction_500mb
179 140 158 199 149 257 102 139 121 116 114 119 80 86 96 43 21 111 134 128 125 139 122 120 111 105 102 107 104 105 103 96 92 86 88 89 89 85 84 83 81 82 92 97 99 95 90 90 92
194 174 347 313 224 113 92 111 115 107 115 108 97 103 66 71 97 124 124 126 130 113 124 124 116 113 114 105 107 105 108 102 99 98 95 90 84 88 85 87 84 84 89 99 101 94 86 87 92
188 256 97 324 274 111 134 139 134 117 132 112 92 73 79 112 122 118 135 136 138 137 149 126 117 112 105 102 114 111 104 100 103 100 97 96 98 92 83 89 87 86 93 104 106 97 86 76 71
178 7 70 204 92 92 153 152 120 143 113 105 115 90 101 132 112 135 141 127 125 131 146 130 123 116 112 112 121 112 107 107 105 103 108 102 96 89 85 84 86 85 84 91 104 92 106 89 67
98 28 42 300 111 129 183 122 132 136 115 137 111 109 110 130 118 132 131 133 134 158 138 129 120 119 115 109 117 112 103 103 104 110 104 89 86 89 79 76 77 81 81 84 83 92 92 91 50
100 354 248 274 115 128 136 140 134 173 138 115 114 117 128 149 140 130 134 142 143 145 141 130 125 122 124 116 120 114 108 103 100 98 90 80 78 70 72 70 59 56 47 21 325 332 334 344 336
144 190 264 95 61 66 133 138 132 144 131 140 133 110 139 156 152 153 157 124 153 141 107 123 131 129 125 121 118 116 110 98 92 94 94 85 76 75 72 71 47 36 14 355 347 341 342 354 348
293 16 321 36 91 355 102 108 122 133 138 146 146 146 165 162 151 162 151 115 151 140 156 131 112 85 111 118 111 103 96 88 85 103 78 83 51 50 82 35 28 19 23 12 360 357 357 351 342
241 14 262 121 113 161 152 121 130 137 134 150 181 152 156 156 147 151 158 134 142 135 137 132 123 161 117 129 113 106 89 81 57 34 36 30 37 50 75 36 30 36 32 31 31 35 24 358 331
134 157 263 102 128 170 134 107 128 126 135 146 92 131 148 151 156 158 160 170 160 142 144 151 147 153 152 142 114 81 55 74 47 50 28 35 14 38 42 32 19 41 31 27 18 34 0 322 304
39 237 251 102 170 191 119 119 152 144 151 134 133 146 153 153 159 162 163 167 158 162 165 144 160 134 145 162 104 129 174 144 56 82 57 50 31 29 44 28 13 37 25 25 15 20 45 35 38
11 290 79 84 71 114 68 140 94 80 2 133 140 152 156 158 160 165 163 175 164 161 156 158 157 148 170 143 169 152 157 50 110 38 58 45 40 75 40 62 33 55 65 32 23 38 1 345 22
79 298 99 95 85 80 153 115 130 130 136 133 147 155 160 163 165 173 174 170 163 162 149 165 166 164 160 169 180 144 114 79 116 80 50 93 49 31 25 22 46 27 55 57 25 64 30 37 10
176 288 121 137 102 175 117 83 147 127 142 138 156 164 166 171 169 172 175 170 167 161 157 172 165 174 163 154 168 134 100 89 37 52 82 83 58 86 65 46 35 27 35 19 29 20 16 23 19
310 266 166 166 155 148 95 114 75 144 153 153 164 172 171 178 173 171 177 168 166 168 166 173 166 148 162 166 138 124 126 80 67 10 34 72 112 323 78 61 61 39 29 16 3 8 2 18 347
215 242 226 4 339 164 113 44 286 167 161 161 175 174 176 178 177 179 184 179 170 171 175 165 162 164 154 140 133 133 147 127 89 357 1 36 75 23 28 56 61 58 24 20 356 5 357 356 350
251 200 153 222 253 250 148 165 223 203 169 171 180 172 178 175 182 184 182 181 178 169 178 163 171 169 164 182 148 125 168 113 93 83 350 42 18 53 84 65 37 48 43 358 359 35 1 358 356
313 32 346 213 221 219 184 188 190 199 173 173 183 173 177 178 195 178 185 181 183 170 181 165 173 180 187 165 151 156 144 114 148 149 305 89 2 42 24 42 19 28 7 347 10 8 19 18 343
356 15 207 292 264 211 210 172 185 180 178 170 183 187 177 184 191 187 188 182 178 179 181 174 173 187 185 174 162 173 188 178 181 234 280 33 359 17 43 59 5 13 347 345 2 12 11 11 8
155 76 272 237 293 198 210 179 171 180 183 175 177 191 181 183 187 189 189 190 183 188 186 183 187 194 184 176 166 187 211 189 180 176 268 200 322 8 12 51 24 26 20 7 3 355 14 15 12
247 168 242 268 182 252 230 244 153 180 185 173 183 186 195 186 180 183 190 193 188 188 190 195 191 198 187 181 187 199 195 183 208 228 257 148 313 356 341 358 351 41 37 330 356 352 16 43 26
249 209 228 229 258 253 193 248 295 179 183 180 179 187 191 194 187 181 189 194 196 188 195 202 196 200 200 177 196 205 192 197 220 203 184 258 315 344 59 319 329 15 49 330 327 353 30 2 3
250 256 265 252 250 273 222 227 209 222 182 183 184 181 191 193 195 187 192 195 196 193 194 202 208 200 204 185 179 205 185 198 173 184 234 255 271 335 17 305 344 345 23 325 341 353 2 358 356
239 252 258 254 274 249 252 249 246 184 188 178 191 184 184 187 196 185 192 194 194 198 195 201 211 211 201 203 189 189 203 182 191 210 233 322 309 324 303 302 331 354 353 311 320 343 338 356 357
220 238 242 232 237 244 249 249 51 143 38 303 185 187 185 182 189 183 187 188 190 197 195 201 209 215 213 207 206 204 199 203 198 192 214 199 237 251 270 293 314 310 294 309 325 340 346 348 355
229 229 238 230 232 244 26 301 39 124 125 234 256 182 182 186 186 189 186 185 186 193 195 196 208 217 217 213 215 215 213 217 209 214 223 213 238 263 274 283 310 283 289 300 327 329 322 335 346
234 225 235 250 251 195 344 301 187 187 215 227 208 171 178 185 184 187 190 184 187 192 198 197 206 216 220 218 219 221 224 221 224 225 233 233 226 225 263 274 284 276 296 281 307 290 315 330 336
229 231 226 239 251 243 155 319 259 260 261 214 169 169 173 177 181 182 188 184 189 192 198 198 204 216 219 218 218 222 224 225 220 213 221 232 224 242 236 246 256 277 276 274 261 300 304 315 312
212 233 226 239 242 251 202 202 243 276 278 229 176 168 166 173 179 178 184 182 186 191 196 198 200 208 216 216 214 218 224 225 222 222 228 235 238 237 253 266 251 266 260 267 257 268 280 303 317
219 219 234 239 239 259 272 223 93 305 278 227 176 154 161 169 177 175 182 180 182 190 193 195 199 203 215 212 208 217 222 221 223 221 227 238 245 250 257 254 250 254 254 264 262 274 262 294 317
Wind_Speed_850mb
13 14 17 19 1 5 18 15 31 26 27 17 24 32 26 31 8 22 35 32 33 24 25 24 22 21 20 20 20 20 19 21 21 21 24 23 24 22 22 24 20 19 18 18 19 20 20 19 14
16 10 12 6 5 10 13 26 28 28 37 39 42 42 27 9 22 43 41 39 31 25 17 23 23 21 20 20 20 22 23 22 22 22 22 21 20 22 21 21 19 20 21 19 20 19 18 16 13
31 27 7 5 8 13 10 12 26 47 48 30 19 26 22 20 41 26 40 40 33 25 13 22 25 22 25 22 22 21 21 21 19 17 19 18 21 23 18 21 20 19 19 17 15 13 12 11 8
14 28 5 5 34 26 13 27 46 41 37 20 42 25 22 17 24 31 43 38 30 32 16 25 24 22 20 21 21 20 19 18 18 17 21 18 16 20 14 20 18 19 17 12 10 7 9 8 6
12 17 5 12 35 29 17 43 37 35 34 30 30 25 23 36 38 48 40 37 32 21 15 24 24 19 22 19 21 21 18 20 19 18 18 16 17 16 16 16 13 13 11 8 5 4 4 4 2
30 1 10 7 40 46 42 50 45 16 37 39 33 35 18 38 51 50 39 23 37 22 11 23 22 20 22 20 22 20 19 19 18 17 17 17 14 17 17 15 14 12 8 5 4 4 5 5 8
16 6 14 26 27 22 41 43 43 30 37 31 46 15 25 53 52 29 45 23 37 14 13 15 20 21 20 21 21 18 17 18 16 18 23 25 21 16 15 17 14 13 12 12 11 11 11 13 13
20 9 30 18 20 6 36 31 35 37 30 41 41 18 32 57 45 35 46 32 27 30 18 16 25 23 17 19 20 21 22 23 20 19 16 18 10 9 8 13 29 21 19 20 20 21 20 17 11
23 8 14 15 17 17 37 41 27 33 45 36 26 34 58 63 43 47 37 28 21 29 22 18 19 13 12 15 25 29 25 21 13 11 22 15 18 8 8 17 25 29 22 27 30 23 20 19 12
10 14 24 19 31 30 33 36 28 32 36 22 36 57 70 60 57 50 41 32 32 29 23 28 17 26 14 17 18 18 19 16 15 18 26 24 25 26 29 31 19 19 25 19 21 10 16 23 11
10 9 22 27 29 20 37 26 30 34 22 42 43 62 72 62 54 45 44 40 32 24 32 34 23 26 23 10 16 10 7 11 21 23 12 21 27 32 38 25 22 21 15 13 24 24 9 25 28
11 20 30 25 23 21 28 19 48 52 4 45 47 59 64 57 56 55 42 35 35 33 36 26 22 19 26 19 16 7 8 19 18 19 26 30 18 17 28 21 36 29 13 13 25 13 13 14 10
4 11 16 17 29 23 22 22 40 40 32 46 51 56 59 54 46 47 43 37 36 33 30 32 32 20 26 15 15 10 12 14 15 19 18 21 17 11 9 25 15 30 23 12 11 9 10 16 8
26 40 18 28 22 12 26 19 21 21 35 43 49 53 52 54 49 49 40 42 38 35 33 26 28 30 31 19 23 13 28 13 17 18 16 23 19 33 33 29 17 22 23 32 34 25 25 30 21
41 34 16 21 24 19 19 18 14 27 37 40 48 52 53 52 50 43 46 36 41 34 32 27 28 27 21 17 34 22 18 7 6 15 23 23 15 3 17 19 9 20 21 18 31 26 29 17 24
30 49 15 17 19 22 25 9 36 25 39 42 47 55 57 55 50 42 51 38 35 37 38 31 28 26 21 26 26 13 10 14 9 7 11 15 17 21 14 22 25 24 26 17 21 16 26 31 22
40 16 31 14 34 20 22 29 20 31 39 44 48 56 52 55 55 55 48 47 41 39 42 39 35 28 23 25 32 16 16 20 8 1 7 12 20 20 15 22 23 23 25 24 22 14 20 30 29
10 18 12 26 16 37 28 29 29 45 50 49 50 59 57 55 46 55 53 47 49 40 43 44 33 32 29 25 23 19 14 9 8 4 11 2 11 13 18 21 22 21 19 27 31 26 25 30 35
14 16 22 42 36 44 11 38 48 57 52 55 52 56 68 62 54 53 52 49 44 46 42 48 41 37 30 22 27 20 17 11 10 9 17 5 10 13 18 9 19 13 16 24 33 27 18 22 34
29 14 51 37 29 23 13 35 54 50 53 62 65 61 69 65 68 60 55 55 49 53 50 52 49 37 36 29 28 20 22 21 15 10 10 5 4 11 7 4 7 13 8 20 25 27 23 24 24
41 44 55 44 40 31 17 22 49 52 53 60 57 60 60 71 82 70 70 62 57 57 53 53 52 47 44 28 27 30 30 22 26 17 4 4 5 10 12 6 13 10 16 14 20 26 22 20 24
45 48 50 32 22 25 26 17 6 44 45 47 63 63 66 66 67 71 68 64 64 60 57 51 58 52 45 42 30 32 32 21 11 10 16 3 12 18 2 16 12 14 11 15 15 22 13 16 15
45 48 37 34 20 28 24 19 26 46 46 46 53 70 67 72 73 72 69 68 69 59 58 56 55 56 45 52 37 31 32 21 16 17 17 13 13 15 8 15 25 12 6 16 20 21 19 14 10
45 50 46 31 25 27 36 31 25 25 30 43 51 67 72 71 71 77 71 76 73 64 60 61 60 59 56 48 49 41 32 33 24 22 15 4 13 16 12 25 29 20 11 13 21 18 23 20 21
46 44 28 25 28 26 36 33 11 32 13 31 44 62 67 72 71 80 78 86 76 73 70 66 66 63 61 58 52 52 45 40 35 27 22 12 9 7 23 27 33 13 18 19 15 19 21 24 23
52 46 30 34 29 31 14 21 2 43 49 103 83 67 66 68 70 74 80 80 81 73 72 70 70 67 64 64 59 51 54 47 41 38 31 17 11 10 20 29 27 19 19 16 12 13 23 24 22
50 43 46 51 42 13 15 13 17 42 39 36 51 68 68 68 70 73 73 76 76 76 74 73 70 68 64 63 60 58 55 51 46 31 22 26 32 31 22 32 15 25 27 12 8 12 24 23 21
58 36 40 33 45 22 6 7 25 22 31 34 32 63 71 69 68 72 72 74 71 72 73 71 68 69 61 59 62 60 57 53 46 38 40 30 21 21 31 19 25 33 22 14 9 13 25 24 16
38 41 39 44 35 29 24 12 20 32 41 33 27 68 76 73 69 71 70 77 75 70 72 74 71 68 63 59 59 58 57 54 49 49 43 41 37 38 36 25 25 28 19 18 15 14 24 23 19
51 52 52 32 38 30 16 10 2 35 48 27 30 71 75 70 67 70 68 74 76 73 73 75 73 70 63 61 60 58 55 49 50 49 45 43 41 34 29 23 26 26 20 21 17 13 22 23 14
Wind_Direction_850mb
179 140 158 199 149 257 102 139 121 116 114 119 80 86 96 43 21 111 134 128 125 139 122 120 111 105 102 107 104 105 103 96 92 86 88 89 89 85 84 83 81 82 92 97 99 95 90 90 92
194 174 347 313 224 113 92 111 115 107 115 108 97 103 66 71 97 124 124 126 130 113 124 124 116 113 114 105 107 105 108 102 99 98 95 90 84 88 85 87 84 84 89 99 101 94 86 87 92
188 256 97 324 274 111 134 139 134 117 132 112 92 73 79 112 122 118 135 136 138 137 149 126 117 112 105 102 114 111 104 100 103 100 97 96 98 92 83 89 87 86 93 104 106 97 86 76 71
178 7 70 204 92 92 153 152 120 143 113 105 115 90 101 132 112 135 141 127 125 131 146 130 123 116 112 112 121 112 107 107 105 103 108 102 96 89 85 84 86 85 84 91 104 92 106 89 67
98 28 42 300 111 129 183 122 132 136 115 137 111 109 110 130 118 132 131 133 134 158 138 129 120 119 115 109 117 112 103 103 104 110 104 89 86 89 79 76 77 81 81 84 83 92 92 91 50
100 354 248 274 115 128 136 140 134 173 138 115 114 117 128 149 140 130 134 142 143 145 141 130 125 122 124 116 120 114 108 103 100 98 90 80 78 70 72 70 59 56 47 21 325 332 334 344 336
144 190 264 95 61 66 133 138 132 144 131 140 133 110 139 156 152 153 157 124 153 141 107 123 131 129 125 121 118 116 110 98 92 94 94 85 76 75 72 71 47 36 14 355 347 341 342 354 348
293 16 321 36 91 355 102 108 122 133 138 146 146 146 165 162 151 162 151 115 151 140 156 131 112 85 111 118 111 103 96 88 85 103 78 83 51 50 82 35 28 19 23 12 360 357 357 351 342
241 14 262 121 113 161 152 121 130 137 134 150 181 152 156 156 147 151 158 134 142 135 137 132 123 161 117 129 113 106 89 81 57 34 36 30 37 50 75 36 30 36 32 31 31 35 24 358 331
134 157 263 102 128 170 134 107 128 126 135 146 92 131 148 151 156 158 160 170 160 142 144 151 147 153 152 142 114 81 55 74 47 50 28 35 14 38 42 32 19 41 31 27 18 34 0 322 304
39 237 251 102 170 191 119 119 152 144 151 134 133 146 153 153 159 162 163 167 158 162 165 144 160 134 145 162 104 129 174 144 56 82 57 50 31 29 44 28 13 37 25 25 15 20 45 35 38
11 290 79 84 71 114 68 140 94 80 2 133 140 152 156 158 160 165 163 175 164 161 156 158 157 148 170 143 169 152 157 50 110 38 58 45 40 75 40 62 33 55 65 32 23 38 1 345 22
79 298 99 95 85 80 153 115 130 130 136 133 147 155 160 163 165 173 174 170 163 162 149 165 166 164 160 169 180 144 114 79 116 80 50 93 49 31 25 22 46 27 55 57 25 64 30 37 10
176 288 121 137 102 175 117 83 147 127 142 138 156 164 166 171 169 172 175 170 167 161 157 172 165 174 163 154 168 134 100 89 37 52 82 83 58 86 65 46 35 27 35 19 29 20 16 23 19
310 266 166 166 155 148 95 114 75 144 153 153 164 172 171 178 173 171 177 168 166 168 166 173 166 148 162 166 138 124 126 80 67 10 34 72 112 323 78 61 61 39 29 16 3 8 2 18 347
215 242 226 4 339 164 113 44 286 167 161 161 175 174 176 178 177 179 184 179 170 171 175 165 162 164 154 140 133 133 147 127 89 357 1 36 75 23 28 56 61 58 24 20 356 5 357 356 350
251 200 153 222 253 250 148 165 223 203 169 171 180 172 178 175 182 184 182 181 178 169 178 163 171 169 164 182 148 125 168 113 93 83 350 42 18 53 84 65 37 48 43 358 359 35 1 358 356
313 32 346 213 221 219 184 188 190 199 173 173 183 173 177 178 195 178 185 181 183 170 181 165 173 180 187 165 151 156 144 114 148 149 305 89 2 42 24 42 19 28 7 347 10 8 19 18 343
356 15 207 292 264 211 210 172 185 180 178 170 183 187 177 184 191 187 188 182 178 179 181 174 173 187 185 174 162 173 188 178 181 234 280 33 359 17 43 59 5 13 347 345 2 12 11 11 8
155 76 272 237 293 198 210 179 171 180 183 175 177 191 181 183 187 189 189 190 183 188 186 183 187 194 184 176 166 187 211 189 180 176 268 200 322 8 12 51 24 26 20 7 3 355 14 15 12
247 168 242 268 182 252 230 244 153 180 185 173 183 186 195 186 180 183 190 193 188 188 190 195 191 198 187 181 187 199 195 183 208 228 257 148 313 356 341 358 351 41 37 330 356 352 16 43 26
249 209 228 229 258 253 193 248 295 179 183 180 179 187 191 194 187 181 189 194 196 188 195 202 196 200 200 177 196 205 192 197 220 203 184 258 315 344 59 319 329 15 49 330 327 353 30 2 3
250 256 265 252 250 273 222 227 209 222 182 183 184 181 191 193 195 187 192 195 196 193 194 202 208 200 204 185 179 205 185 198 173 184 234 255 271 335 17 305 344 345 23 325 341 353 2 358 356
239 252 258 254 274 249 252 249 246 184 188 178 191 184 184 187 196 185 192 194 194 198 195 201 211 211 201 203 189 189 203 182 191 210 233 322 309 324 303 302 331 354 353 311 320 343 338 356 357
220 238 242 232 237 244 249 249 51 143 38 303 185 187 185 182 189 183 187 188 190 197 195 201 209 215 213 207 206 204 199 203 198 192 214 199 237 251 270 293 314 310 294 309 325 340 346 348 355
229 229 238 230 232 244 26 301 39 124 125 234 256 182 182 186 186 189 186 185 186 193 195 196 208 217 217 213 215 215 213 217 209 214 223 213 238 263 274 283 310 283 289 300 327 329 322 335 346
234 225 235 250 251 195 344 301 187 187 215 227 208 171 178 185 184 187 190 184 187 192 198 197 206 216 220 218 219 221 224 221 224 225 233 233 226 225 263 274 284 276 296 281 307 290 315 330 336
229 231 226 239 251 243 155 319 259 260 261 214 169 169 173 177 181 182 188 184 189 192 198 198 204 216 219 218 218 222 224 225 220 213 221 232 224 242 236 246 256 277 276 274 261 300 304 315 312
212 233 226 239 242 251 202 202 243 276 278 229 176 168 166 173 179 178 184 182 186 191 196 198 200 208 216 216 214 218 224 225 222 222 228 235 238 237 253 266 251 266 260 267 257 268 280 303 317
219 219 234 239 239 259 272 223 93 305 278 227 176 154 161 169 177 175 182 180 182 190 193 195 199 203 215 212 208 217 222 221 223 221 227 238 245 250 257 254 250 254 254 264 262 274 262 294 317